Flag for Czech Republic Weather past 2 weeks in Liberec, Czech Republic

Now
88 °F

Hot.


Feels Like: 86 °F
Forecast: 61 / 80 °F
Wind: 3 mph from South

Location: Liberec

Current Time: Aug 4, 2015 at 7:03:57 PM

Latest Report: Aug 4, 2015 at 6:00 PM


Visibility: 13 mi

Pressure: 29.84 "Hg

Humidity: 30%

Dew point: 53 °F

Location of LiberecLocation

Historic Weather in Liberec — Graph

°F

Liberec temperature yesterday

Maximum temperature yesterday: 84 °F (at 5:00 PM)
Minimum temperature yesterday: 55 °F (at 5:00 AM)
Average temperature yesterday: 72 °F

Past Weeks' High & Low Weather Summary

 TemperatureHumidityPressure
High92 °F (Jul 22, 4:00 PM)96% (Jul 31, 5:00 AM)30.14 "Hg (Jul 31, 5:00 AM)
Low41 °F (Jul 31, 5:00 AM)22% (Aug 1, 2:00 PM)29.60 "Hg (Jul 27, 4:00 PM)
Average66 °F58%29.91 "Hg
* Reported Jul 20 5:00 PM — Aug 4 5:00 PM, Liberec, Weather by CustomWeather, © 2015

Note: Actual official high and low records may vary slightly from our data, if they occured in-between our weather recording intervals... More about our weather records

Advertising

Liberec weather history for previous 24 hours

 ConditionsComfort  
Time TempWeatherWind HumidityBarometerVisibility
5:00 PM
Tue, Aug 4
87 °FScattered clouds.3 mph28%29.85 "Hg22 mi
4:00 PM89 °FScattered clouds.5 mph24%29.85 "Hg25 mi
3:00 PM88 °FScattered clouds.5 mph25%29.85 "Hg25 mi
2:00 PM88 °FScattered clouds.5 mph27%29.87 "Hg25 mi
1:00 PM87 °FPassing clouds.3 mph30%29.89 "Hg25 mi
12:00 PM83 °FPassing clouds.3 mph34%29.92 "Hg25 mi
11:00 AM84 °FPassing clouds.5 mph35%29.93 "Hg25 mi
10:00 AM81 °FSunny.3 mph41%29.96 "Hg25 mi
9:00 AM79 °FSunny.3 mph46%29.97 "Hg19 mi
8:00 AM74 °FSunny.2 mph54%29.99 "Hg19 mi
7:00 AM70 °FMild.2 mph60%30.01 "Hg12 mi
5:00 AM68 °FMild.2 mph64%30.01 "Hg12 mi
4:00 AM66 °FMild.1 mph64%30.02 "Hg12 mi
3:00 AM66 °FMild.2 mph66%30.03 "Hg12 mi
2:00 AM62 °FCool.1 mph77%30.05 "Hg11 mi
1:00 AM62 °FMild.1 mph74%30.06 "Hg11 mi
12:00 AM65 °FFog.1 mph71%30.06 "Hg4 mi
10:00 PM
Mon, Aug 3
66 °FClear.No wind61%30.06 "Hg19 mi
9:00 PM71 °FPassing clouds.1 mph53%30.03 "Hg22 mi
8:00 PM78 °FPassing clouds.2 mph43%30.01 "Hg22 mi
7:00 PM83 °FPleasantly warm.2 mph33%30.00 "Hg12 mi
Weather by CustomWeather, © 2015

See weather overviewHow to use our weather pages